FW3711 Weather Reports


Display with metric or nautical units.
time (UTC)temp
F
wind
direction
speed
MPH
gust
MPH
rain 1hr
in
rain 24hr
in
rain mn
in
humidity
%
barometer
mb
20210304132912 47 76 0.0 0.0 0.00 0.00 0.00 42 1019.8
20210304132406 48 360 0.0 0.0 0.00 0.00 0.00 38 1019.8
20210304131610 49 360 0.0 0.0 0.00 0.00 0.00 36 1019.6
20210304131128 50 133 0.0 0.0 0.00 0.00 0.00 35 1019.7
20210304130541 50 132 0.0 0.0 0.00 0.00 0.00 36 1019.7
20210304130105 49 128 0.0 0.0 0.00 0.00 0.00 37 1019.5
20210304125716 48 360 0.0 0.0 0.00 0.00 0.00 40 1019.5
20210304125237 48 360 0.0 0.0 0.00 0.00 0.00 40 1019.9
20210304124553 48 360 0.0 0.0 0.00 0.00 0.00 39 1020.0
20210304124050 48 80 0.0 0.0 0.00 0.00 0.00 39 1020.0
20210304123542 49 360 0.0 0.0 0.00 0.00 0.00 38 1019.9
20210304123148 50 360 0.0 0.0 0.00 0.00 0.00 33 1020.1
20210304122804 51 360 0.0 0.0 0.00 0.00 0.00 34 1020.2
20210304121546 50 360 0.0 0.0 0.00 0.00 0.00 34 1019.9
20210304121027 50 210 0.0 0.0 0.00 0.00 0.00 34 1019.8
20210304120529 50 197 0.0 0.0 0.00 0.00 0.00 34 1019.8
20210304120226 50 194 0.0 0.0 0.00 0.00 0.00 34 1019.7
20210304120010 50 196 0.0 0.0 0.00 0.00 0.00 34 1019.8
20210304115401 50 235 0.0 0.0 0.00 0.00 0.00 32 1019.6
20210304114528 51 360 0.0 0.0 0.00 0.00 0.00 31 1019.7
20210304114050 51 360 0.0 0.0 0.00 0.00 0.00 31 1019.8
20210304113145 51 225 0.0 0.0 0.00 0.00 0.00 32 1019.8
20210304112851 50 257 0.0 0.0 0.00 0.00 0.00 33 1019.7
20210304112341 49 360 0.0 0.0 0.00 0.00 0.00 33 1019.9
20210304111544 49 360 0.0 0.0 0.00 0.00 0.00 33 1020.0
20210304111026 50 360 0.0 0.0 0.00 0.00 0.00 31 1019.8
20210304110542 51 360 0.0 0.0 0.00 0.00 0.00 30 1019.9
20210304110349 51 360 0.0 0.0 0.00 0.00 0.00 31 1019.6
20210304110101 51 360 0.0 0.0 0.00 0.00 0.00 31 1019.6
20210304105610 50 360 0.0 0.0 0.00 0.00 0.00 31 1019.5
20210304104523 50 360 0.0 0.0 0.00 0.00 0.00 31 1019.7
20210304104029 50 157 0.0 0.0 0.00 0.00 0.00 30 1019.9
20210304103542 51 143 0.0 0.0 0.00 0.00 0.00 30 1019.9
20210304103023 51 134 0.0 0.0 0.00 0.00 0.00 30 1019.9
20210304102742 51 132 0.0 0.0 0.00 0.00 0.00 31 1020.0
20210304102237 51 132 0.0 0.0 0.00 0.00 0.00 30 1020.0
20210304101520 51 360 0.0 0.0 0.00 0.00 0.00 28 1020.1
20210304101020 52 167 0.0 0.0 0.00 0.00 0.00 28 1020.1
20210304100522 52 360 0.0 0.0 0.00 0.00 0.00 28 1020.2
20210304100038 52 164 0.0 0.0 0.00 0.00 0.00 27 1020.1
20210304095809 53 360 0.0 0.0 0.00 0.00 0.00 27 1020.2
20210304095143 54 142 0.0 0.0 0.00 0.00 0.00 26 1020.1
20210304094522 54 148 0.0 0.0 0.00 0.00 0.00 25 1020.4
20210304094118 54 155 0.0 0.0 0.00 0.00 0.00 26 1020.4
20210304093559 54 360 0.0 0.0 0.00 0.00 0.00 27 1020.6
20210304092949 54 360 0.0 0.0 0.00 0.00 0.00 26 1020.8
20210304092621 54 182 0.0 0.0 0.00 0.00 0.00 26 1020.7
20210304091910 54 360 0.0 0.0 0.00 0.00 0.00 26 1020.6
20210304091106 54 360 0.0 0.0 0.00 0.00 0.00 26 1020.7
20210304090622 54 196 0.0 0.0 0.00 0.00 0.00 25 1020.6
20210304090414 54 205 0.0 0.0 0.00 0.00 0.00 25 1020.8
20210304085821 54 205 0.0 0.0 0.00 0.00 0.00 25 1020.7
20210304085425 55 205 0.0 0.0 0.00 0.00 0.00 25 1020.7
20210304084641 55 206 0.0 0.0 0.00 0.00 0.00 25 1021.0
20210304084111 54 221 0.0 0.0 0.00 0.00 0.00 25 1021.1
20210304083600 54 279 0.0 0.0 0.00 0.00 0.00 24 1021.0
20210304083144 54 360 0.0 0.0 0.00 0.00 0.00 23 1021.0
20210304082829 54 279 0.0 0.0 0.00 0.00 0.00 24 1021.2
20210304082232 53 278 0.0 0.0 0.00 0.00 0.00 24 1021.3
20210304081647 53 278 0.0 0.0 0.00 0.00 0.00 23 1021.6
20210304081050 53 360 0.0 0.0 0.00 0.00 0.00 23 1021.7
20210304080555 53 279 0.0 0.0 0.00 0.00 0.00 23 1021.6
20210304080103 53 279 0.0 0.0 0.00 0.00 0.00 23 1021.4
20210304075711 53 279 0.0 0.0 0.00 0.00 0.00 23 1021.6
20210304074626 55 277 0.0 0.0 0.00 0.00 0.00 21 1022.1
20210304074049 56 275 0.0 0.0 0.00 0.00 0.00 21 1022.0
20210304073618 56 275 0.0 0.0 0.00 0.00 0.00 21 1021.9
20210304073116 56 275 0.0 0.0 0.00 0.00 0.00 21 1022.0
20210304072637 56 237 0.0 0.0 0.00 0.00 0.00 21 1021.8
20210304072122 56 238 0.0 0.0 0.00 0.00 0.00 22 1021.6
20210304071553 55 239 0.0 0.0 0.00 0.00 0.00 22 1021.7
20210304071049 55 246 0.0 0.0 0.00 0.00 0.00 22 1021.8
20210304070545 55 247 0.0 0.0 0.00 0.00 0.00 23 1021.9
20210304070106 54 248 0.0 0.0 0.00 0.00 0.00 24 1021.8
20210304065753 54 248 0.0 0.0 0.00 0.00 0.00 23 1021.8
20210304065224 54 248 0.0 0.0 0.00 0.00 0.00 22 1021.8
20210304064801 54 248 0.0 0.0 0.00 0.00 0.00 22 1021.8
20210304064115 54 250 0.0 0.0 0.00 0.00 0.00 22 1022.4
20210304063517 55 259 0.0 0.0 0.00 0.00 0.00 21 1022.5
20210304063147 56 254 0.0 0.0 0.00 0.00 0.00 21 1022.5
20210304063044 55 360 0.0 0.0 0.00 0.00 0.00 22 1022.6
20210304062607 55 360 0.0 0.0 0.00 0.00 0.00 22 1022.7
20210304061553 55 360 0.0 0.0 0.00 0.00 0.00 21 1022.8
20210304061031 55 360 0.0 0.0 0.00 0.00 0.00 22 1022.9
20210304060523 56 189 0.0 0.0 0.00 0.00 0.00 21 1022.8
20210304060026 56 189 0.0 0.0 0.00 0.00 0.00 21 1022.8
20210304055731 56 189 0.0 0.0 0.00 0.00 0.00 21 1022.5
20210304055201 56 189 0.0 0.0 0.00 0.00 0.00 21 1022.8
20210304054026 56 360 0.0 0.0 0.00 0.00 0.00 21 1022.8
20210304053519 56 360 0.0 0.0 0.00 0.00 0.00 21 1023.0
20210304053018 56 360 0.0 0.0 0.00 0.00 0.00 21 1023.0
20210304052736 57 360 0.0 0.0 0.00 0.00 0.00 20 1023.1
20210304052122 57 360 0.0 0.0 0.00 0.00 0.00 20 1023.1
20210304051517 57 360 0.0 0.0 0.00 0.00 0.00 20 1023.2
20210304051028 57 360 0.0 0.0 0.00 0.00 0.00 20 1023.3
20210304050535 57 360 0.0 0.0 0.00 0.00 0.00 20 1023.0
20210304050120 57 360 0.0 0.0 0.00 0.00 0.00 20 1023.2
20210304045721 57 360 0.0 0.0 0.00 0.00 0.00 20 1023.3
20210304045203 57 360 0.0 0.0 0.00 0.00 0.00 20 1023.3
20210304044546 57 360 0.0 0.0 0.00 0.00 0.00 20 1023.3
20210304044034 57 360 0.0 0.0 0.00 0.00 0.00 19 1023.2
20210304043538 57 360 0.0 0.0 0.00 0.00 0.00 19 1023.3
20210304043143 57 360 0.0 0.0 0.00 0.00 0.00 19 1023.4
20210304042822 57 360 0.0 0.0 0.00 0.00 0.00 19 1023.4
20210304042150 58 360 0.0 0.0 0.00 0.00 0.00 18 1023.4
20210304041616 59 360 0.0 0.0 0.00 0.00 0.00 18 1023.4
20210304041036 59 360 0.0 0.0 0.00 0.00 0.00 18 1023.4
20210304040532 59 170 0.0 0.0 0.00 0.00 0.00 18 1023.4
20210304040124 59 360 0.0 0.0 0.00 0.00 0.00 17 1023.2
20210304035931 59 161 0.0 0.0 0.00 0.00 0.00 17 1023.1
20210304035634 60 160 0.0 0.0 0.00 0.00 0.00 17 1023.4
20210304034647 60 159 0.0 0.0 0.00 0.00 0.00 17 1023.2
20210304033531 62 158 0.0 0.0 0.00 0.00 0.00 16 1023.2
20210304033324 62 157 0.0 0.0 0.00 0.00 0.00 15 1023.3
20210304033050 62 156 0.0 0.0 0.00 0.00 0.00 15 1023.1
20210304032816 63 155 0.0 0.0 0.00 0.00 0.00 15 1023.0
20210304031619 63 153 0.0 0.0 0.00 0.00 0.00 15 1023.0
20210304031025 64 151 0.0 0.0 0.00 0.00 0.00 14 1023.1
20210304030526 64 148 0.0 0.0 0.00 0.00 0.00 14 1023.1
20210304030259 65 146 0.0 0.0 0.00 0.00 0.00 14 1023.0
20210304025906 65 146 0.0 0.0 0.00 0.00 0.00 14 1023.1
20210304025305 65 146 0.0 0.0 0.00 0.00 0.00 14 1023.2
20210304024555 65 147 0.0 0.0 0.00 0.00 0.00 13 1023.0
20210304024028 65 147 0.0 0.0 0.00 0.00 0.00 13 1022.9
20210304023537 66 148 0.0 0.0 0.00 0.00 0.00 13 1023.0
20210304023151 67 148 0.0 0.0 0.00 0.00 0.00 12 1022.8
20210304022812 68 150 0.0 0.0 0.00 0.00 0.00 12 1022.6
20210304022259 68 360 0.0 0.0 0.00 0.00 0.00 12 1022.7
20210304021534 68 360 0.0 0.0 0.00 0.00 0.00 12 1022.8
20210304021029 69 360 0.0 0.0 0.00 0.00 0.00 12 1022.6
20210304020533 69 232 0.0 0.0 0.00 0.00 0.00 11 1022.6
20210304015755 70 236 0.0 0.0 0.00 0.00 0.00 11 1022.2
20210304014542 70 236 0.0 0.0 0.00 0.00 0.00 11 1022.3
20210304014029 70 236 0.0 0.0 0.00 0.00 0.00 11 1022.4
20210304013545 71 236 0.0 0.0 0.00 0.00 0.00 11 1022.2
20210304013047 71 236 0.0 0.0 0.00 0.00 0.00 11 1022.3
20210304012817 71 237 0.0 0.0 0.00 0.00 0.00 10 1022.1
20210304012253 72 237 0.0 0.0 0.00 0.00 0.00 10 1022.3
20210304011534 72 238 0.0 0.0 0.00 0.00 0.00 10 1022.4
20210304011104 73 238 0.0 0.0 0.00 0.00 0.00 10 1022.2
20210304010526 73 239 0.0 0.0 0.00 0.00 0.00 10 1022.4
20210304010105 74 240 0.0 0.0 0.00 0.00 0.00 9 1022.3
20210304005846 74 240 0.0 0.0 0.00 0.00 0.00 9 1022.3
20210304005311 74 241 0.0 0.0 0.00 0.00 0.00 10 1022.3
20210304004545 75 242 0.0 0.0 0.00 0.00 0.00 9 1022.2
20210304004037 75 242 0.0 0.0 0.00 0.00 0.00 9 1022.1
20210304003544 75 242 0.0 0.0 0.00 0.00 0.00 9 1022.3
20210304003029 75 246 0.0 0.0 0.00 0.00 0.00 9 1022.3
20210304002734 75 232 0.0 0.0 0.00 0.00 0.00 9 1022.2
20210304001540 76 223 0.0 0.0 0.00 0.00 0.00 9 1022.4
20210304001048 76 360 0.0 0.0 0.00 0.00 0.00 9 1022.2
20210304000628 75 253 0.0 0.0 0.00 0.00 0.00 9 1022.2
20210303235946 75 243 0.0 0.0 0.00 0.00 0.00 9 1022.2
20210303234541 75 268 0.0 0.0 0.00 0.00 0.00 9 1022.2
20210303234037 74 259 0.0 0.0 0.00 0.00 0.00 9 1022.2
20210303233527 74 261 0.0 0.0 0.00 0.00 0.00 9 1022.4
20210303233202 74 250 0.0 0.0 0.00 0.00 0.00 9 1022.2
20210303232939 74 247 0.0 0.0 0.00 0.00 0.00 8 1022.2
20210303232533 75 254 0.0 0.0 0.00 0.00 0.00 8 1022.3
20210303231522 75 235 0.0 0.0 0.00 0.00 0.00 8 1022.5
20210303231028 74 260 0.0 0.0 0.00 0.00 0.00 7 1022.4
20210303230528 75 259 0.0 0.0 0.00 0.00 0.00 7 1022.6
20210303230023 75 256 0.0 0.0 0.00 0.00 0.00 7 1022.5
20210303225143 75 205 0.0 0.0 0.00 0.00 0.00 7 1022.5
20210303224522 75 205 0.0 0.0 0.00 0.00 0.00 7 1022.5
20210303224031 75 205 0.0 0.0 0.00 0.00 0.00 7 1022.4
20210303223526 74 205 0.0 0.0 0.00 0.00 0.00 7 1022.5
20210303223145 74 205 0.0 0.0 0.00 0.00 0.00 7 1022.3
20210303222931 75 228 0.0 0.0 0.00 0.00 0.00 7 1022.7
20210303222337 75 246 0.0 0.0 0.00 0.00 0.00 7 1022.6
20210303221511 75 240 0.0 0.0 0.00 0.00 0.00 7 1022.8
20210303221012 75 360 0.0 0.0 0.00 0.00 0.00 7 1022.5
20210303220520 75 218 0.0 0.0 0.00 0.00 0.00 6 1022.6
20210303220129 75 223 0.0 0.0 0.00 0.00 0.00 7 1022.5
20210303215928 75 220 0.0 0.0 0.00 0.00 0.00 6 1022.7
20210303214830 74 229 0.0 0.0 0.00 0.00 0.00 6 1022.7
20210303214100 74 232 0.0 0.0 0.00 0.00 0.00 6 1022.9
20210303213619 75 256 0.0 0.0 0.00 0.00 0.00 6 1022.9
20210303213157 75 235 0.0 0.0 0.00 0.00 0.00 6 1022.9
20210303212951 74 222 0.0 0.0 0.00 0.00 0.00 7 1022.9
20210303212713 74 254 0.0 0.0 0.00 0.00 0.00 6 1023.0
20210303211656 74 360 0.0 0.0 0.00 0.00 0.00 7 1023.0
20210303211108 74 265 0.0 0.0 0.00 0.00 0.00 7 1023.2
20210303210554 74 261 0.0 0.0 0.00 0.00 0.00 8 1023.1
20210303210251 74 262 0.0 0.0 0.00 0.00 0.00 7 1023.3
20210303205941 74 221 0.0 0.0 0.00 0.00 0.00 8 1023.2
20210303205733 74 220 0.0 0.0 0.00 0.00 0.00 8 1023.3
20210303204827 73 213 0.0 0.0 0.00 0.00 0.00 8 1023.4
20210303204055 73 234 0.0 0.0 0.00 0.00 0.00 9 1023.4
20210303203555 73 360 0.0 0.0 0.00 0.00 0.00 9 1023.6
20210303203239 73 227 0.0 0.0 0.00 0.00 0.00 9 1023.6
20210303202912 72 360 0.0 0.0 0.00 0.00 0.00 9 1023.8
20210303202548 72 230 0.0 0.0 0.00 0.00 0.00 8 1023.9
20210303201652 72 233 0.0 0.0 0.00 0.00 0.00 9 1023.9
20210303200551 72 250 0.0 0.0 0.00 0.00 0.00 8 1024.1
20210303200225 72 230 0.0 0.0 0.00 0.00 0.00 9 1023.9
20210303195937 73 228 0.0 0.0 0.00 0.00 0.00 8 1024.0
20210303195423 73 223 0.0 0.0 0.00 0.00 0.00 8 1024.2
20210303194559 72 223 0.0 0.0 0.00 0.00 0.00 9 1023.9
20210303194048 73 259 0.0 0.0 0.00 0.00 0.00 9 1024.1
20210303193551 72 237 0.0 0.0 0.00 0.00 0.00 9 1024.0
20210303193308 72 225 0.0 0.0 0.00 0.00 0.00 11 1024.4
20210303193102 71 233 0.0 0.0 0.00 0.00 0.00 11 1024.7
20210303192839 71 360 0.0 0.0 0.00 0.00 0.00 11 1024.6
20210303191651 71 255 0.0 0.0 0.00 0.00 0.00 10 1024.6
20210303191034 72 264 0.0 0.0 0.00 0.00 0.00 11 1024.7
20210303190808 72 360 0.0 0.0 0.00 0.00 0.00 10 1025.1
20210303190534 72 260 0.0 0.0 0.00 0.00 0.00 10 1025.1
20210303190212 71 234 0.0 0.0 0.00 0.00 0.00 11 1025.1
20210303185954 71 360 0.0 0.0 0.00 0.00 0.00 12 1025.0
20210303184552 71 264 0.0 0.0 0.00 0.00 0.00 12 1025.4
20210303184138 71 242 0.0 0.0 0.00 0.00 0.00 12 1025.6
20210303183600 71 237 0.0 0.0 0.00 0.00 0.00 12 1025.4
20210303183447 71 267 0.0 0.0 0.00 0.00 0.00 12 1025.5
20210303183133 71 360 0.0 0.0 0.00 0.00 0.00 12 1025.8
20210303181627 70 246 0.0 0.0 0.00 0.00 0.00 13 1025.8
20210303181107 69 272 0.0 0.0 0.00 0.00 0.00 13 1025.9
20210303180427 69 360 0.0 0.0 0.00 0.00 0.00 14 1025.9
20210303175557 68 257 0.0 0.0 0.00 0.00 0.00 14 1026.4
20210303174304 68 360 0.0 0.0 0.00 0.00 0.00 15 1026.3
20210303173913 67 261 0.0 0.0 0.00 0.00 0.00 15 1026.4
20210303172956 67 265 0.0 0.0 0.00 0.00 0.00 15 1026.5
20210303171524 66 360 0.0 0.0 0.00 0.00 0.00 16 1026.4
20210303171043 66 254 0.0 0.0 0.00 0.00 0.00 16 1026.3
20210303170216 65 269 0.0 0.0 0.00 0.00 0.00 16 1026.3
20210303170023 65 267 0.0 0.0 0.00 0.00 0.00 17 1026.4
20210303165344 65 270 0.0 0.0 0.00 0.00 0.00 17 1026.4
20210303164656 64 241 0.0 0.0 0.00 0.00 0.00 18 1026.6
20210303164336 63 241 0.0 0.0 0.00 0.00 0.00 19 1026.4
20210303164144 62 255 0.0 0.0 0.00 0.00 0.00 19 1026.4
20210303163944 62 265 0.0 0.0 0.00 0.00 0.00 19 1026.7
20210303163523 62 265 0.0 0.0 0.00 0.00 0.00 20 1026.5
20210303163056 62 360 0.0 0.0 0.00 0.00 0.00 20 1026.5
20210303162023 62 257 0.0 0.0 0.00 0.00 0.00 20 1026.5
20210303161115 61 240 0.0 0.0 0.00 0.00 0.00 20 1026.4
20210303160625 61 272 0.0 0.0 0.00 0.00 0.00 20 1026.3
20210303160040 59 261 0.0 0.0 0.00 0.00 0.00 22 1026.4
20210303155128 58 234 0.0 0.0 0.00 0.00 0.00 22 1026.3
20210303154525 57 261 0.0 0.0 0.00 0.00 0.00 23 1026.2
20210303154033 56 250 0.0 0.0 0.00 0.00 0.00 24 1026.2
20210303153546 56 232 0.0 0.0 0.00 0.00 0.00 24 1026.2
20210303153220 56 229 0.0 0.0 0.00 0.00 0.00 24 1026.2
20210303153024 56 230 0.0 0.0 0.00 0.00 0.00 23 1026.2
20210303152429 57 227 0.0 0.0 0.00 0.00 0.00 22 1026.1
20210303151533 57 244 0.0 0.0 0.00 0.00 0.00 22 1026.2
20210303151238 57 243 0.0 0.0 0.00 0.00 0.00 22 1026.0
20210303150523 57 256 0.0 0.0 0.00 0.00 0.00 22 1026.0
20210303145809 56 360 0.0 0.0 0.00 0.00 0.00 24 1025.9
20210303145155 55 237 0.0 0.0 0.00 0.00 0.00 24 1026.1
20210303144522 55 235 0.0 0.0 0.00 0.00 0.00 25 1025.8
20210303144111 54 360 0.0 0.0 0.00 0.00 0.00 25 1025.9
20210303144022 54 236 0.0 0.0 0.00 0.00 0.00 25 1025.7
20210303143603 53 237 0.0 0.0 0.00 0.00 0.00 26 1025.6
20210303143222 52 227 0.0 0.0 0.00 0.00 0.00 26 1025.7
20210303142757 51 232 0.0 0.0 0.00 0.00 0.00 27 1025.6
20210303141637 49 227 0.0 0.0 0.00 0.00 0.00 28 1025.6
20210303141056 48 228 0.0 0.0 0.00 0.00 0.00 29 1025.6
20210303140557 47 226 0.0 0.0 0.00 0.00 0.00 30 1025.4
20210303140143 47 225 0.0 0.0 0.00 0.00 0.00 31 1025.5
20210303135354 45 267 0.0 0.0 0.00 0.00 0.00 32 1025.3
20210303134637 45 267 0.0 0.0 0.00 0.00 0.00 32 1025.3
20210303134052 44 268 0.0 0.0 0.00 0.00 0.00 32 1025.4
20210303133736 44 268 0.0 0.0 0.00 0.00 0.00 31 1025.4
20210303133544 45 269 0.0 0.0 0.00 0.00 0.00 30 1025.3